Zurück zum Katalog

STARLINK-30432

AktivKommunikationVLEO
NORAD 57864·PAYLOAD·🇺🇸 United States

Gestartet Sep 16, 2023 von Cape Canaveral Space Force Station

Loading…

Nächste Überflüge (nächste 24 Stunden)

TLE

AktuellSource: CelesTrak SupGP

Epoche: Sep 15, 2026, 02:58 UTC

1 57864C 23144A   26258.12409722  .00016143  00000+0  58459-3 0  2580
2 57864  43.0006 295.2373 0001445 263.2492 350.5749 15.27576626    19

Verfolge STARLINK-30432 in Echtzeit mit AllMySat

Download on the App Store